When you browse on this site, cookies collect data to enhance your experience and personalize the content and advertising you see.
Visit our Privacy Policy to learn more. By continuing to use the site, you agree to this use of cookies and data.
  • In Hungary
  • List of Countries
  • For 7 days
  • Water Temperature
  • Satellite Maps
  • Weather Map
  • News
  • Weather Widgets
  • user-avatar
    Login

    Hourly Weather Lyman (Krasnyj Liman)

    Today, 22 February, Friday

    Time Temperature Precipitation Wind Pressure Humidity
    00:00 -7°C° 0 mm 5 mps 750 mmHg 76%
    01:00 -8°C° 0 mm 5 mps 750 mmHg 77%
    02:00 -8°C° 0 mm 5 mps 750 mmHg 78%
    03:00 -9°C° 0 mm 4 mps 750 mmHg 80%
    04:00 -9°C° 0 mm 4 mps 750 mmHg 80%
    05:00 -9°C° 0 mm 4 mps 750 mmHg 81%
    06:00 -11°C° 0 mm 5 mps 751 mmHg 81%
    07:00 -11°C° 0 mm 5 mps 751 mmHg 80%
    08:00 -11°C° 0 mm 5 mps 751 mmHg 79%
    09:00 -10°C° 0 mm 5 mps 751 mmHg 77%
    10:00 -10°C° 0 mm 5 mps 751 mmHg 74%
    11:00 -8°C° 0 mm 5 mps 751 mmHg 71%
    12:00 -8°C° 0 mm 5 mps 752 mmHg 67%
    13:00 -8°C° 0 mm 4 mps 752 mmHg 66%
    14:00 -8°C° 0 mm 4 mps 752 mmHg 66%
    15:00 -8°C° 0 mm 4 mps 753 mmHg 65%
    16:00 -8°C° 0 mm 4 mps 753 mmHg 67%
    17:00 -9°C° 0 mm 4 mps 754 mmHg 69%
    18:00 -8°C° 0 mm 3 mps 754 mmHg 71%
    19:00 -9°C° 0 mm 3 mps 755 mmHg 71%
    20:00 -9°C° 0 mm 3 mps 755 mmHg 72%
    21:00 -9°C° 0 mm 3 mps 756 mmHg 73%
    22:00 -9°C° 0 mm 3 mps 756 mmHg 74%
    23:00 -10°C° 0 mm 3 mps 757 mmHg 75%

    Tomorrow, 23 February, Saturday

    Time Temperature Precipitation Wind Pressure Humidity
    00:00 -9°C° 0 mm 2 mps 757 mmHg 77%
    01:00 -10°C° 0 mm 3 mps 758 mmHg 78%
    02:00 -10°C° 0 mm 3 mps 758 mmHg 80%
    03:00 -10°C° 0 mm 3 mps 759 mmHg 81%
    04:00 -12°C° 0 mm 3 mps 759 mmHg 83%
    05:00 -12°C° 0 mm 3 mps 760 mmHg 84%
    06:00 -13°C° 0 mm 3 mps 760 mmHg 85%
    07:00 -13°C° 0 mm 3 mps 761 mmHg 85%
    08:00 -13°C° 0 mm 3 mps 761 mmHg 85%
    09:00 -13°C° 0 mm 3 mps 762 mmHg 85%
    10:00 -12°C° 0 mm 3 mps 762 mmHg 82%
    11:00 -9°C° 0 mm 3 mps 762 mmHg 79%
    12:00 -9°C° 0 mm 4 mps 763 mmHg 76%
    13:00 -9°C° 0 mm 4 mps 763 mmHg 76%
    14:00 -8°C° 0 mm 4 mps 763 mmHg 75%
    15:00 -8°C° 0 mm 4 mps 763 mmHg 74%
    16:00 -8°C° 0 mm 4 mps 763 mmHg 75%
    17:00 -8°C° 0 mm 4 mps 763 mmHg 75%
    18:00 -9°C° 0 mm 4 mps 763 mmHg 76%
    19:00 -9°C° 0 mm 4 mps 764 mmHg 78%
    20:00 -9°C° 0 mm 4 mps 764 mmHg 80%
    21:00 -9°C° 0 mm 4 mps 764 mmHg 82%
    22:00 -10°C° 0 mm 4 mps 764 mmHg 83%
    23:00 -11°C° 0 mm 4 mps 764 mmHg 84%

    Day after tomorrow, 24 February, Sunday

    Time Temperature Precipitation Wind Pressure Humidity
    00:00 -12°C° 0 mm 3 mps 764 mmHg 85%
    01:00 -12°C° 0 mm 3 mps 764 mmHg 85%
    02:00 -13°C° 0 mm 3 mps 764 mmHg 85%
    03:00 -13°C° 0 mm 3 mps 764 mmHg 84%
    04:00 -14°C° 0 mm 3 mps 764 mmHg 84%
    05:00 -14°C° 0 mm 3 mps 764 mmHg 83%
    06:00 -13°C° 0 mm 2 mps 763 mmHg 82%
    07:00 -13°C° 0 mm 2 mps 763 mmHg 79%
    08:00 -13°C° 0 mm 2 mps 764 mmHg 76%
    09:00 -12°C° 0 mm 2 mps 764 mmHg 73%
    10:00 -10°C° 0 mm 2 mps 763 mmHg 70%
    11:00 -9°C° 0 mm 3 mps 763 mmHg 67%
    12:00 -7°C° 0 mm 3 mps 763 mmHg 63%
    13:00 -6°C° 0 mm 3 mps 762 mmHg 65%
    14:00 -7°C° 0 mm 4 mps 762 mmHg 67%
    15:00 -6°C° 0 mm 5 mps 762 mmHg 69%
    16:00 -5°C° 0 mm 4 mps 761 mmHg 73%
    17:00 -5°C° 0 mm 4 mps 761 mmHg 76%
    18:00 -7°C° 0 mm 4 mps 761 mmHg 80%
    19:00 -7°C° 0.1 mm 4 mps 761 mmHg 82%
    20:00 -5°C° 0.1 mm 4 mps 761 mmHg 84%
    21:00 -5°C° 0.1 mm 4 mps 761 mmHg 86%
    22:00 -6°C° 0.1 mm 5 mps 761 mmHg 87%
    23:00 -6°C° 0.1 mm 5 mps 760 mmHg 89%

    25 February, Monday

    Time Temperature Precipitation Wind Pressure Humidity
    00:00 -5°C° 0.1 mm 5 mps 760 mmHg 90%
    01:00 -5°C° 0.2 mm 5 mps 760 mmHg 91%
    02:00 -5°C° 0.2 mm 5 mps 759 mmHg 91%
    03:00 -5°C° 0.2 mm 5 mps 759 mmHg 92%
    04:00 -4°C° 0.1 mm 5 mps 759 mmHg 92%
    05:00 -4°C° 0.1 mm 5 mps 758 mmHg 92%
    06:00 -3°C° 0.1 mm 4 mps 758 mmHg 93%
    07:00 -3°C° 0 mm 4 mps 758 mmHg 92%
    08:00 -3°C° 0 mm 4 mps 758 mmHg 91%
    09:00 -2°C° 0 mm 4 mps 758 mmHg 91%
    10:00 -2°C° 0 mm 4 mps 757 mmHg 90%
    11:00 -2°C° 0 mm 5 mps 757 mmHg 90%
    12:00 -1°C° 0 mm 5 mps 757 mmHg 89%
    13:00 -1°C° 0.1 mm 5 mps 756 mmHg 89%
    14:00 -1°C° 0.1 mm 5 mps 755 mmHg 88%
    15:00 -1°C° 0.1 mm 5 mps 755 mmHg 87%
    16:00 -1°C° 0.4 mm 5 mps 754 mmHg 88%
    17:00 -1°C° 0.4 mm 5 mps 754 mmHg 90%
    18:00 -1°C° 0.4 mm 5 mps 754 mmHg 91%
    19:00 -1°C° 0.1 mm 5 mps 753 mmHg 91%
    20:00 -2°C° 0.1 mm 5 mps 753 mmHg 91%
    21:00 -2°C° 0.1 mm 5 mps 753 mmHg 92%
    22:00 -2°C° 0 mm 5 mps 752 mmHg 92%
    23:00 -1°C° 0 mm 5 mps 751 mmHg 93%

    26 February, Tuesday

    Time Temperature Precipitation Wind Pressure Humidity
    00:00 -1°C° 0 mm 5 mps 751 mmHg 94%
    01:00 -1°C° 0.1 mm 5 mps 750 mmHg 92%
    02:00 -1°C° 0.1 mm 5 mps 750 mmHg 91%
    03:00 -2°C° 0.1 mm 6 mps 749 mmHg 89%
    04:00 -3°C° 0.1 mm 6 mps 748 mmHg 89%
    05:00 -3°C° 0.1 mm 6 mps 748 mmHg 89%
    06:00 -3°C° 0.1 mm 6 mps 747 mmHg 88%
    07:00 -3°C° 0.1 mm 7 mps 747 mmHg 87%
    08:00 -3°C° 0.1 mm 7 mps 747 mmHg 86%
    09:00 -2°C° 0.1 mm 7 mps 746 mmHg 85%
    10:00 -2°C° 0.1 mm 7 mps 746 mmHg 83%
    11:00 -2°C° 0.1 mm 7 mps 746 mmHg 82%
    12:00 -2°C° 0.1 mm 6 mps 745 mmHg 81%
    13:00 -2°C° 0.1 mm 6 mps 745 mmHg 81%
    14:00 -2°C° 0.1 mm 6 mps 744 mmHg 80%
    15:00 -2°C° 0.1 mm 6 mps 744 mmHg 79%
    16:00 -1°C° 0 mm 5 mps 743 mmHg 81%
    17:00 -2°C° 0 mm 4 mps 743 mmHg 83%
    18:00 -2°C° 0 mm 4 mps 743 mmHg 84%
    19:00 -2°C° 0 mm 3 mps 742 mmHg 87%
    20:00 -2°C° 0 mm 3 mps 742 mmHg 89%
    21:00 -2°C° 0 mm 2 mps 742 mmHg 91%
    22:00 -2°C° 0 mm 2 mps 742 mmHg 92%
    23:00 -3°C° 0 mm 2 mps 741 mmHg 93%

    27 February, Wednesday

    Time Temperature Precipitation Wind Pressure Humidity
    00:00 -3°C° 0 mm 2 mps 741 mmHg 94%
    01:00 -3°C° 0 mm 2 mps 741 mmHg 94%
    02:00 -4°C° 0 mm 2 mps 741 mmHg 93%
    03:00 -4°C° 0 mm 2 mps 741 mmHg 93%
    04:00 -4°C° 0 mm 2 mps 742 mmHg 93%
    05:00 -5°C° 0 mm 3 mps 742 mmHg 92%
    06:00 -5°C° 0 mm 3 mps 742 mmHg 92%
    07:00 -4°C° 0.1 mm 3 mps 743 mmHg 90%
    08:00 -4°C° 0.1 mm 4 mps 743 mmHg 89%
    09:00 -3°C° 0.1 mm 4 mps 744 mmHg 88%
    10:00 -4°C° 0 mm 5 mps 744 mmHg 86%
    11:00 -2°C° 0 mm 5 mps 745 mmHg 84%
    12:00 -1°C° 0 mm 5 mps 745 mmHg 82%
    13:00 -1°C° 0.1 mm 5 mps 745 mmHg 81%
    14:00 -1°C° 0.1 mm 5 mps 746 mmHg 80%
    15:00 -1°C° 0.1 mm 6 mps 746 mmHg 79%
    16:00 -1°C° 0.1 mm 5 mps 746 mmHg 82%
    17:00 -1°C° 0.1 mm 4 mps 747 mmHg 84%
    18:00 -2°C° 0.1 mm 4 mps 747 mmHg 86%
    19:00 -2°C° 0 mm 4 mps 748 mmHg 87%
    20:00 -2°C° 0 mm 4 mps 748 mmHg 89%
    21:00 -3°C° 0 mm 4 mps 749 mmHg 90%
    22:00 -2°C° 0 mm 3 mps 749 mmHg 90%
    23:00 -2°C° 0 mm 3 mps 749 mmHg 90%
    Show more